Time,TemperatureF,DewpointF,PressureIn,WindDirection,WindDirectionDegrees,WindSpeedMPH,WindSpeedGustMPH,Humidity,HourlyPrecipIn,Conditions,Clouds,dailyrainin,SoftwareType,DateUTC
2015-04-26 00:00:00,44.6,44.6,0.00,North,0,0.0,0.0,100,0.00,,SKC,42.27,VWS V14.01,2015-04-26 04:00:00,
2015-04-26 00:05:00,44.6,44.2,0.00,North,0,0.0,0.0,99,0.00,,SKC,0.00,VWS V14.01,2015-04-26 04:05:00,
2015-04-26 00:10:00,44.4,44.0,0.00,North,0,0.0,0.0,99,0.00,,SKC,0.00,VWS V14.01,2015-04-26 04:10:00,
2015-04-26 00:15:00,44.2,43.9,0.00,North,0,0.0,0.0,99,0.00,,SKC,0.00,VWS V14.01,2015-04-26 04:15:00,
2015-04-26 00:20:00,44.2,43.9,0.00,North,0,0.0,0.0,99,0.00,,SKC,0.00,VWS V14.01,2015-04-26 04:20:00,
2015-04-26 00:25:00,44.2,43.9,0.00,North,0,0.0,0.0,99,0.00,,SKC,0.00,VWS V14.01,2015-04-26 04:25:00,
2015-04-26 00:30:00,44.2,43.9,0.00,North,0,0.0,0.0,99,0.00,,SKC,0.00,VWS V14.01,2015-04-26 04:30:00,
2015-04-26 00:35:00,44.2,43.9,0.00,North,0,0.0,0.0,99,0.00,,SKC,0.00,VWS V14.01,2015-04-26 04:35:00,
2015-04-26 00:40:00,44.2,43.9,0.00,North,0,0.0,0.0,99,0.00,,SKC,0.00,VWS V14.01,2015-04-26 04:40:00,
2015-04-26 00:45:00,44.1,43.7,0.00,North,0,0.0,0.0,99,0.00,,SKC,0.00,VWS V14.01,2015-04-26 04:45:00,
2015-04-26 00:50:00,44.1,43.7,0.00,North,0,0.0,0.0,99,0.00,,SKC,0.00,VWS V14.01,2015-04-26 04:50:00,
2015-04-26 00:55:00,44.2,43.9,0.00,North,0,0.0,0.0,99,0.00,,SKC,0.00,VWS V14.01,2015-04-26 04:55:00,
2015-04-26 01:00:00,44.1,43.7,0.00,North,0,0.0,0.0,99,0.00,,SKC,0.00,VWS V14.01,2015-04-26 05:00:00,
2015-04-26 01:05:00,44.1,43.7,0.00,North,0,0.0,0.0,99,0.00,,SKC,0.00,VWS V14.01,2015-04-26 05:05:00,
2015-04-26 01:10:00,44.1,43.7,0.00,North,0,0.0,0.0,99,0.00,,SKC,0.00,VWS V14.01,2015-04-26 05:10:00,
2015-04-26 01:15:00,44.1,43.7,0.00,North,0,0.0,0.0,99,0.00,,SKC,0.00,VWS V14.01,2015-04-26 05:15:00,
2015-04-26 01:20:00,44.1,43.7,0.00,North,0,0.0,0.0,99,0.00,,SKC,0.00,VWS V14.01,2015-04-26 05:20:00,
2015-04-26 01:25:00,44.1,43.7,0.00,North,0,0.0,0.0,99,0.00,,SKC,0.00,VWS V14.01,2015-04-26 05:25:00,
2015-04-26 01:30:00,44.1,43.7,0.00,North,0,0.0,0.0,99,0.00,,SKC,0.00,VWS V14.01,2015-04-26 05:30:00,
2015-04-26 01:35:00,43.9,43.5,0.00,North,0,0.0,0.0,99,0.00,,SKC,0.00,VWS V14.01,2015-04-26 05:35:00,
2015-04-26 01:40:00,43.9,43.9,0.00,North,0,0.0,0.0,100,0.00,,SKC,0.00,VWS V14.01,2015-04-26 05:40:00,
2015-04-26 01:45:00,43.9,43.9,0.00,North,0,0.0,0.0,100,0.00,,SKC,0.00,VWS V14.01,2015-04-26 05:45:00,
2015-04-26 01:50:00,43.9,43.9,0.00,North,0,0.0,0.0,100,0.00,,SKC,0.00,VWS V14.01,2015-04-26 05:50:00,
2015-04-26 01:55:00,43.7,43.7,0.00,North,0,0.0,0.0,100,0.00,,SKC,0.00,VWS V14.01,2015-04-26 05:55:00,
2015-04-26 02:00:00,43.9,43.9,0.00,North,0,0.0,0.0,100,0.00,,SKC,0.00,VWS V14.01,2015-04-26 06:00:00,
2015-04-26 02:05:00,43.9,43.9,0.00,North,0,0.0,0.0,100,0.00,,SKC,0.00,VWS V14.01,2015-04-26 06:05:00,
2015-04-26 02:10:00,43.9,43.5,0.00,North,0,0.0,0.0,99,0.00,,SKC,0.00,VWS V14.01,2015-04-26 06:10:00,
2015-04-26 02:15:00,43.9,43.5,0.00,North,0,0.0,0.0,99,0.00,,SKC,0.00,VWS V14.01,2015-04-26 06:15:00,
2015-04-26 02:20:00,43.9,43.5,0.00,North,0,0.0,0.0,99,0.00,,SKC,0.00,VWS V14.01,2015-04-26 06:20:00,
2015-04-26 02:25:00,43.7,43.3,0.00,North,0,0.0,0.0,99,0.00,,SKC,0.00,VWS V14.01,2015-04-26 06:25:00,
2015-04-26 02:30:00,43.7,43.3,0.00,North,0,0.0,0.0,99,0.00,,SKC,0.00,VWS V14.01,2015-04-26 06:30:00,
2015-04-26 02:35:00,43.5,42.7,0.00,North,0,0.0,0.0,97,0.00,,SKC,0.00,VWS V14.01,2015-04-26 06:35:00,
2015-04-26 02:40:00,43.5,42.7,0.00,North,0,0.0,0.0,97,0.00,,SKC,0.00,VWS V14.01,2015-04-26 06:40:00,
2015-04-26 02:45:00,43.5,42.7,0.00,North,0,0.0,0.0,97,0.00,,SKC,0.00,VWS V14.01,2015-04-26 06:45:00,
2015-04-26 02:50:00,43.5,42.7,0.00,North,0,0.0,0.0,97,0.00,,SKC,0.00,VWS V14.01,2015-04-26 06:50:00,
2015-04-26 02:55:00,43.5,42.7,0.00,North,0,0.0,0.0,97,0.00,,SKC,0.00,VWS V14.01,2015-04-26 06:55:00,
2015-04-26 03:00:00,43.5,42.2,0.00,North,0,0.0,0.0,95,0.00,,SKC,0.00,VWS V14.01,2015-04-26 07:00:00,
2015-04-26 03:05:00,43.3,42.0,0.00,North,0,0.0,0.0,95,0.00,,SKC,0.00,VWS V14.01,2015-04-26 07:05:00,
2015-04-26 03:10:00,43.3,42.0,0.00,North,0,0.0,0.0,95,0.00,,SKC,0.00,VWS V14.01,2015-04-26 07:10:00,
2015-04-26 03:15:00,43.3,42.0,0.00,North,0,0.0,0.0,95,0.00,,SKC,0.00,VWS V14.01,2015-04-26 07:15:00,
2015-04-26 03:20:00,43.3,41.5,0.00,North,0,0.0,0.0,93,0.00,,SKC,0.00,VWS V14.01,2015-04-26 07:20:00,
2015-04-26 03:25:00,43.2,41.3,0.00,North,0,0.0,0.0,93,0.00,,SKC,0.00,VWS V14.01,2015-04-26 07:25:00,
2015-04-26 03:30:00,43.2,41.3,0.00,North,0,0.0,0.0,93,0.00,,SKC,0.00,VWS V14.01,2015-04-26 07:30:00,
2015-04-26 03:35:00,43.0,40.6,0.00,North,0,0.0,0.0,91,0.00,,SKC,0.00,VWS V14.01,2015-04-26 07:35:00,
2015-04-26 03:40:00,42.8,40.4,0.00,North,0,0.0,0.0,91,0.00,,SKC,0.00,VWS V14.01,2015-04-26 07:40:00,
2015-04-26 03:45:00,42.6,40.2,0.00,North,0,0.0,0.0,91,0.00,,SKC,0.00,VWS V14.01,2015-04-26 07:45:00,
2015-04-26 03:50:00,42.4,39.5,0.00,North,0,0.0,0.0,89,0.00,,SKC,0.00,VWS V14.01,2015-04-26 07:50:00,
2015-04-26 03:55:00,42.3,38.8,0.00,North,0,0.0,0.0,87,0.00,,SKC,0.00,VWS V14.01,2015-04-26 07:55:00,
2015-04-26 04:00:00,42.1,38.1,0.00,North,0,0.0,0.0,86,0.00,,SKC,0.00,VWS V14.01,2015-04-26 08:00:00,
2015-04-26 04:05:00,41.7,37.2,0.00,North,0,0.0,0.0,84,0.00,,SKC,0.00,VWS V14.01,2015-04-26 08:05:00,
2015-04-26 04:10:00,41.7,37.2,0.00,North,0,0.0,0.0,84,0.00,,SKC,0.00,VWS V14.01,2015-04-26 08:10:00,
2015-04-26 04:15:00,41.5,36.4,0.00,North,0,0.0,0.0,82,0.00,,SKC,0.00,VWS V14.01,2015-04-26 08:15:00,
2015-04-26 04:20:00,41.5,35.8,0.00,North,0,0.0,0.0,80,0.00,,SKC,0.00,VWS V14.01,2015-04-26 08:20:00,
2015-04-26 04:25:00,41.5,35.2,0.00,North,0,0.0,0.0,78,0.00,,SKC,0.00,VWS V14.01,2015-04-26 08:25:00,
2015-04-26 04:30:00,41.5,35.2,0.00,North,0,0.0,0.0,78,0.00,,SKC,0.00,VWS V14.01,2015-04-26 08:30:00,
2015-04-26 04:35:00,41.5,34.6,0.00,North,0,0.0,0.0,76,0.00,,SKC,0.00,VWS V14.01,2015-04-26 08:35:00,
2015-04-26 04:40:00,41.5,34.6,0.00,North,0,0.0,0.0,76,0.00,,SKC,0.00,VWS V14.01,2015-04-26 08:40:00,
2015-04-26 04:45:00,41.4,33.8,0.00,North,0,0.0,0.0,74,0.00,,SKC,0.00,VWS V14.01,2015-04-26 08:45:00,
2015-04-26 04:50:00,41.4,33.8,0.00,North,0,0.0,0.0,74,0.00,,SKC,0.00,VWS V14.01,2015-04-26 08:50:00,
2015-04-26 04:55:00,41.2,33.7,0.00,North,0,0.0,0.0,74,0.00,,SKC,0.00,VWS V14.01,2015-04-26 08:55:00,
2015-04-26 05:00:00,41.2,33.0,0.00,North,0,0.0,0.0,73,0.00,,SKC,0.00,VWS V14.01,2015-04-26 09:00:00,
2015-04-26 05:10:00,41.2,33.0,0.00,North,0,0.0,0.0,73,0.00,,SKC,0.00,VWS V14.01,2015-04-26 09:10:00,
2015-04-26 05:15:00,41.2,33.0,0.00,North,0,0.0,0.0,73,0.00,,SKC,0.00,VWS V14.01,2015-04-26 09:15:00,
2015-04-26 05:20:00,41.0,32.9,0.00,North,0,0.0,0.0,73,0.00,,SKC,0.00,VWS V14.01,2015-04-26 09:20:00,
2015-04-26 05:25:00,41.0,32.2,0.00,North,0,0.0,0.0,71,0.00,,SKC,0.00,VWS V14.01,2015-04-26 09:25:00,
2015-04-26 05:30:00,41.0,32.2,0.00,North,0,0.0,0.0,71,0.00,,SKC,0.00,VWS V14.01,2015-04-26 09:30:00,
2015-04-26 05:35:00,41.0,32.2,0.00,North,0,0.0,0.0,71,0.00,,SKC,0.00,VWS V14.01,2015-04-26 09:35:00,
2015-04-26 05:40:00,41.0,32.2,0.00,North,0,0.0,0.0,71,0.00,,SKC,0.00,VWS V14.01,2015-04-26 09:40:00,
2015-04-26 05:45:00,41.0,31.6,0.00,North,0,0.0,0.0,69,0.00,,SKC,0.00,VWS V14.01,2015-04-26 09:45:00,
2015-04-26 05:50:00,41.0,30.9,0.00,North,0,0.0,0.0,67,0.00,,SKC,0.00,VWS V14.01,2015-04-26 09:50:00,
2015-04-26 05:55:00,41.0,30.2,0.00,North,0,0.0,0.0,65,0.00,,SKC,0.00,VWS V14.01,2015-04-26 09:55:00,
2015-04-26 06:00:00,40.8,30.0,0.00,North,0,0.0,0.0,65,0.00,,SKC,0.00,VWS V14.01,2015-04-26 10:00:00,
2015-04-26 06:05:00,40.8,30.0,0.00,North,0,0.0,0.0,65,0.00,,SKC,0.00,VWS V14.01,2015-04-26 10:05:00,
2015-04-26 06:10:00,40.6,29.1,0.00,North,0,0.0,0.0,63,0.00,,SKC,0.00,VWS V14.01,2015-04-26 10:10:00,
2015-04-26 06:15:00,40.6,29.1,0.00,North,0,0.0,0.0,63,0.00,,SKC,0.00,VWS V14.01,2015-04-26 10:15:00,
2015-04-26 06:20:00,40.6,29.1,0.00,North,0,0.0,0.0,63,0.00,,SKC,0.00,VWS V14.01,2015-04-26 10:20:00,
2015-04-26 06:25:00,40.6,28.4,0.00,North,0,0.0,0.0,61,0.00,,SKC,0.00,VWS V14.01,2015-04-26 10:25:00,
2015-04-26 06:30:00,40.6,28.4,0.00,North,0,0.0,0.0,61,0.00,,SKC,0.00,VWS V14.01,2015-04-26 10:30:00,
2015-04-26 06:35:00,40.6,28.4,0.00,North,0,0.0,0.0,61,0.00,,SKC,0.00,VWS V14.01,2015-04-26 10:35:00,
2015-04-26 06:40:00,40.6,28.4,0.00,North,0,0.0,0.0,61,0.00,,SKC,0.00,VWS V14.01,2015-04-26 10:40:00,
2015-04-26 06:45:00,40.8,28.6,0.00,North,0,0.0,0.0,61,0.00,,SKC,0.00,VWS V14.01,2015-04-26 10:45:00,
2015-04-26 06:50:00,40.8,28.6,0.00,North,0,0.0,0.0,61,0.00,,SKC,0.00,VWS V14.01,2015-04-26 10:50:00,
2015-04-26 06:55:00,41.0,28.0,0.00,North,0,0.0,0.0,60,0.00,,SKC,0.00,VWS V14.01,2015-04-26 10:55:00,
2015-04-26 07:00:00,41.0,28.0,0.00,North,0,0.0,0.0,60,0.00,,SKC,0.00,VWS V14.01,2015-04-26 11:00:00,
2015-04-26 07:05:00,41.0,28.0,0.00,North,0,0.0,0.0,60,0.00,,SKC,0.00,VWS V14.01,2015-04-26 11:05:00,
2015-04-26 07:10:00,41.2,28.2,0.00,North,0,0.0,0.0,60,0.00,,SKC,0.00,VWS V14.01,2015-04-26 11:10:00,
2015-04-26 07:15:00,41.2,28.2,0.00,North,0,0.0,0.0,60,0.00,,SKC,0.00,VWS V14.01,2015-04-26 11:15:00,
2015-04-26 07:20:00,41.2,28.2,0.00,North,0,0.0,0.0,60,42.27,,SKC,42.27,VWS V14.01,2015-04-26 11:20:00,
2015-04-26 07:25:00,41.4,28.3,0.00,North,0,0.0,0.0,60,42.27,,SKC,42.27,VWS V14.01,2015-04-26 11:25:00,
2015-04-26 07:30:00,41.2,28.2,0.00,North,0,0.0,0.0,60,42.27,,SKC,42.27,VWS V14.01,2015-04-26 11:30:00,
2015-04-26 07:35:00,41.2,28.2,0.00,North,0,0.0,0.0,60,42.27,,SKC,42.27,VWS V14.01,2015-04-26 11:35:00,
2015-04-26 07:40:00,41.2,28.2,0.00,North,0,0.0,0.0,60,42.27,,SKC,42.27,VWS V14.01,2015-04-26 11:40:00,
2015-04-26 07:45:00,41.5,28.5,0.00,North,0,0.0,0.0,60,42.27,,SKC,42.27,VWS V14.01,2015-04-26 11:45:00,
2015-04-26 07:50:00,41.7,28.7,0.00,North,0,0.0,0.0,60,42.27,,SKC,42.27,VWS V14.01,2015-04-26 11:50:00,
2015-04-26 07:55:00,41.9,28.9,0.00,North,0,0.0,0.0,60,42.27,,SKC,42.27,VWS V14.01,2015-04-26 11:55:00,
2015-04-26 08:00:00,42.3,29.2,0.00,North,0,0.0,0.0,60,42.27,,SKC,42.27,VWS V14.01,2015-04-26 12:00:00,
2015-04-26 08:05:00,42.8,29.7,0.00,North,0,0.0,0.0,60,42.27,,SKC,42.27,VWS V14.01,2015-04-26 12:05:00,
2015-04-26 08:10:00,43.3,30.2,0.00,North,0,0.0,0.0,60,42.27,,SKC,42.27,VWS V14.01,2015-04-26 12:10:00,
2015-04-26 08:15:00,43.7,30.5,0.00,North,0,0.0,0.0,60,42.27,,SKC,42.27,VWS V14.01,2015-04-26 12:15:00,
2015-04-26 08:20:00,44.1,30.1,0.00,North,0,0.0,0.0,58,0.00,,SKC,42.27,VWS V14.01,2015-04-26 12:20:00,
2015-04-26 08:25:00,44.6,30.6,0.00,North,0,0.0,0.0,58,0.00,,SKC,42.27,VWS V14.01,2015-04-26 12:25:00,
2015-04-26 08:30:00,45.5,31.5,0.00,North,0,0.0,0.0,58,0.00,,SKC,42.27,VWS V14.01,2015-04-26 12:30:00,
2015-04-26 08:35:00,46.2,31.3,0.00,North,0,0.0,0.0,56,0.00,,SKC,42.27,VWS V14.01,2015-04-26 12:35:00,
2015-04-26 08:40:00,47.1,32.2,0.00,North,0,0.0,0.0,56,0.00,,SKC,42.27,VWS V14.01,2015-04-26 12:40:00,
2015-04-26 08:45:00,47.5,31.6,0.00,North,0,0.0,0.0,54,0.00,,SKC,42.27,VWS V14.01,2015-04-26 12:45:00,
2015-04-26 08:50:00,47.3,30.6,0.00,North,0,0.0,0.0,52,0.00,,SKC,42.27,VWS V14.01,2015-04-26 12:50:00,
2015-04-26 08:55:00,47.5,30.8,0.00,North,0,0.0,0.0,52,0.00,,SKC,42.27,VWS V14.01,2015-04-26 12:55:00,
2015-04-26 09:00:00,48.0,30.4,0.00,North,0,0.0,0.0,50,0.00,,SKC,42.27,VWS V14.01,2015-04-26 13:00:00,
2015-04-26 09:05:00,48.2,29.6,0.00,North,0,0.0,0.0,48,0.00,,SKC,42.27,VWS V14.01,2015-04-26 13:05:00,
2015-04-26 09:10:00,48.6,30.0,0.00,North,0,0.0,0.0,48,0.00,,SKC,42.27,VWS V14.01,2015-04-26 13:10:00,
2015-04-26 09:15:00,49.1,28.5,0.00,North,0,0.0,0.0,45,0.00,,SKC,42.27,VWS V14.01,2015-04-26 13:15:00,
2015-04-26 09:20:00,48.9,28.3,0.00,North,0,0.0,0.0,45,0.00,,SKC,42.27,VWS V14.01,2015-04-26 13:20:00,
2015-04-26 09:25:00,49.1,25.3,0.00,North,0,0.0,0.0,39,0.00,,SKC,42.27,VWS V14.01,2015-04-26 13:25:00,
2015-04-26 09:30:00,48.9,22.7,0.00,North,0,0.0,0.0,35,0.00,,SKC,42.27,VWS V14.01,2015-04-26 13:30:00,
2015-04-26 09:35:00,48.7,22.6,0.00,North,0,0.0,0.0,35,0.00,,SKC,42.27,VWS V14.01,2015-04-26 13:35:00,
2015-04-26 09:40:00,48.9,22.7,0.00,North,0,0.0,0.0,35,0.00,,SKC,42.27,VWS V14.01,2015-04-26 13:40:00,
2015-04-26 09:45:00,48.9,22.7,0.00,North,0,0.0,0.0,35,0.00,,SKC,42.27,VWS V14.01,2015-04-26 13:45:00,
2015-04-26 09:50:00,48.7,18.5,0.00,North,0,0.0,0.0,30,0.00,,SKC,42.27,VWS V14.01,2015-04-26 13:50:00,
2015-04-26 09:55:00,48.9,22.7,0.00,North,0,0.0,0.0,35,0.00,,SKC,42.27,VWS V14.01,2015-04-26 13:55:00,
2015-04-26 10:00:00,49.3,23.0,0.00,North,0,0.0,0.0,35,0.00,,SKC,42.27,VWS V14.01,2015-04-26 14:00:00,
2015-04-26 10:05:00,50.0,23.7,0.00,North,0,0.0,0.0,35,0.00,,SKC,42.27,VWS V14.01,2015-04-26 14:05:00,
2015-04-26 10:10:00,50.5,24.1,0.00,North,0,0.0,0.0,35,0.00,,SKC,42.27,VWS V14.01,2015-04-26 14:10:00,
2015-04-26 10:15:00,50.9,24.5,0.00,North,0,0.0,0.0,35,0.00,,SKC,42.27,VWS V14.01,2015-04-26 14:15:00,
2015-04-26 10:20:00,51.3,20.7,0.00,North,0,0.0,0.0,30,0.00,,SKC,42.27,VWS V14.01,2015-04-26 14:20:00,
2015-04-26 10:25:00,51.1,20.6,0.00,North,0,0.0,0.0,30,0.00,,SKC,42.27,VWS V14.01,2015-04-26 14:25:00,
2015-04-26 10:30:00,51.1,20.6,0.00,North,0,0.0,0.0,30,0.00,,SKC,42.27,VWS V14.01,2015-04-26 14:30:00,
2015-04-26 10:35:00,51.3,20.7,0.00,North,0,0.0,0.0,30,0.00,,SKC,42.27,VWS V14.01,2015-04-26 14:35:00,
2015-04-26 10:40:00,51.8,21.2,0.00,North,0,0.0,0.0,30,0.00,,SKC,42.27,VWS V14.01,2015-04-26 14:40:00,
2015-04-26 10:45:00,52.3,21.6,0.00,North,0,0.0,0.0,30,0.00,,SKC,42.27,VWS V14.01,2015-04-26 14:45:00,
2015-04-26 10:50:00,52.9,22.1,0.00,North,0,0.0,0.0,30,0.00,,SKC,42.27,VWS V14.01,2015-04-26 14:50:00,
2015-04-26 10:55:00,53.1,22.3,0.00,North,0,0.0,0.0,30,0.00,,SKC,0.00,VWS V14.01,2015-04-26 14:55:00,
2015-04-26 11:00:00,53.2,17.6,0.00,North,0,0.0,0.0,24,0.00,,SKC,42.27,VWS V14.01,2015-04-26 15:00:00,
2015-04-26 11:05:00,53.6,17.9,0.00,North,0,0.0,0.0,24,0.00,,SKC,42.27,VWS V14.01,2015-04-26 15:05:00,
2015-04-26 11:10:00,54.3,18.5,0.00,North,0,0.0,0.0,24,0.00,,SKC,42.27,VWS V14.01,2015-04-26 15:10:00,
2015-04-26 11:15:00,54.1,18.3,0.00,North,0,0.0,0.0,24,0.00,,SKC,42.27,VWS V14.01,2015-04-26 15:15:00,
2015-04-26 11:20:00,54.5,18.6,0.00,North,0,0.0,0.0,24,0.00,,SKC,42.27,VWS V14.01,2015-04-26 15:20:00,
2015-04-26 11:25:00,54.7,18.8,0.00,North,0,0.0,0.0,24,0.00,,SKC,42.27,VWS V14.01,2015-04-26 15:25:00,
2015-04-26 11:30:00,55.6,17.7,0.00,North,0,0.0,0.0,22,0.00,,SKC,42.27,VWS V14.01,2015-04-26 15:30:00,
2015-04-26 11:35:00,55.9,18.0,0.00,North,0,0.0,0.0,22,0.00,,SKC,42.27,VWS V14.01,2015-04-26 15:35:00,
2015-04-26 11:40:00,56.7,18.6,0.00,North,0,0.0,0.0,22,0.00,,SKC,42.27,VWS V14.01,2015-04-26 15:40:00,
2015-04-26 11:45:00,57.2,19.1,0.00,North,0,0.0,0.0,22,0.00,,SKC,42.27,VWS V14.01,2015-04-26 15:45:00,
2015-04-26 11:50:00,57.4,19.2,0.00,North,0,0.0,0.0,22,0.00,,SKC,0.00,VWS V14.01,2015-04-26 15:50:00,
2015-04-26 11:55:00,57.6,19.4,0.00,North,0,0.0,0.0,22,0.00,,SKC,42.27,VWS V14.01,2015-04-26 15:55:00,
2015-04-26 12:00:00,57.9,19.7,0.00,North,0,0.0,0.0,22,0.00,,SKC,42.27,VWS V14.01,2015-04-26 16:00:00,
2015-04-26 12:05:00,57.6,19.4,0.00,North,0,0.0,0.0,22,0.00,,SKC,42.27,VWS V14.01,2015-04-26 16:05:00,
2015-04-26 12:10:00,57.4,19.2,0.00,North,0,0.0,0.0,22,0.00,,SKC,42.27,VWS V14.01,2015-04-26 16:10:00,
2015-04-26 12:15:00,57.6,19.4,0.00,North,0,0.0,0.0,22,0.00,,SKC,42.27,VWS V14.01,2015-04-26 16:15:00,
2015-04-26 12:20:00,58.1,19.8,0.00,North,0,0.0,0.0,22,0.00,,SKC,42.27,VWS V14.01,2015-04-26 16:20:00,
2015-04-26 12:25:00,58.5,20.1,0.00,North,0,0.0,0.0,22,0.00,,SKC,42.27,VWS V14.01,2015-04-26 16:25:00,
2015-04-26 12:30:00,58.6,20.3,0.00,North,0,0.0,0.0,22,0.00,,SKC,42.27,VWS V14.01,2015-04-26 16:30:00,
2015-04-26 12:35:00,58.8,20.4,0.00,North,0,0.0,0.0,22,0.00,,SKC,42.27,VWS V14.01,2015-04-26 16:35:00,
2015-04-26 12:40:00,58.8,20.4,0.00,North,0,0.0,0.0,22,0.00,,SKC,42.27,VWS V14.01,2015-04-26 16:40:00,
2015-04-26 12:45:00,58.6,20.3,0.00,North,0,0.0,0.0,22,0.00,,SKC,42.27,VWS V14.01,2015-04-26 16:45:00,
2015-04-26 12:50:00,59.0,20.6,0.00,North,0,0.0,0.0,22,0.00,,SKC,42.27,VWS V14.01,2015-04-26 16:50:00,
2015-04-26 12:55:00,58.8,20.4,0.00,North,0,0.0,0.0,22,0.00,,SKC,42.27,VWS V14.01,2015-04-26 16:55:00,
2015-04-26 13:00:00,58.6,20.3,0.00,North,0,0.0,0.0,22,0.00,,SKC,42.27,VWS V14.01,2015-04-26 17:00:00,
2015-04-26 13:05:00,59.4,20.9,0.00,North,0,0.0,0.0,22,0.00,,SKC,42.27,VWS V14.01,2015-04-26 17:05:00,
2015-04-26 13:10:00,59.7,21.2,0.00,North,0,0.0,0.0,22,0.00,,SKC,42.27,VWS V14.01,2015-04-26 17:10:00,
2015-04-26 13:15:00,60.1,21.5,0.00,North,0,0.0,0.0,22,0.00,,SKC,42.27,VWS V14.01,2015-04-26 17:15:00,
2015-04-26 13:20:00,60.1,21.5,0.00,North,0,0.0,0.0,22,0.00,,SKC,42.27,VWS V14.01,2015-04-26 17:20:00,
2015-04-26 13:25:00,60.1,21.5,0.00,North,0,0.0,0.0,22,0.00,,SKC,42.27,VWS V14.01,2015-04-26 17:25:00,
2015-04-26 13:30:00,59.7,21.2,0.00,North,0,0.0,0.0,22,0.00,,SKC,42.27,VWS V14.01,2015-04-26 17:30:00,
2015-04-26 13:35:00,59.4,20.9,0.00,North,0,0.0,0.0,22,0.00,,SKC,42.27,VWS V14.01,2015-04-26 17:35:00,
2015-04-26 13:40:00,59.5,21.0,0.00,North,0,0.0,0.0,22,0.00,,SKC,42.27,VWS V14.01,2015-04-26 17:40:00,
2015-04-26 13:45:00,60.3,21.6,0.00,North,0,0.0,0.0,22,0.00,,SKC,42.27,VWS V14.01,2015-04-26 17:45:00,
2015-04-26 13:50:00,60.1,21.5,0.00,North,0,0.0,0.0,22,0.00,,SKC,42.27,VWS V14.01,2015-04-26 17:50:00,
2015-04-26 13:55:00,59.7,21.2,0.00,North,0,0.0,0.0,22,0.00,,SKC,42.27,VWS V14.01,2015-04-26 17:55:00,
2015-04-26 14:00:00,60.1,21.5,0.00,North,0,0.0,0.0,22,0.00,,SKC,42.27,VWS V14.01,2015-04-26 18:00:00,
2015-04-26 14:05:00,60.8,20.0,0.00,North,0,0.0,0.0,20,0.00,,SKC,42.27,VWS V14.01,2015-04-26 18:05:00,
2015-04-26 14:10:00,60.6,21.9,0.00,North,0,0.0,0.0,22,0.00,,SKC,42.27,VWS V14.01,2015-04-26 18:10:00,
2015-04-26 14:15:00,60.3,21.6,0.00,North,0,0.0,0.0,22,0.00,,SKC,42.27,VWS V14.01,2015-04-26 18:15:00,
2015-04-26 14:20:00,60.3,21.6,0.00,North,0,0.0,0.0,22,0.00,,SKC,42.27,VWS V14.01,2015-04-26 18:20:00,
2015-04-26 14:25:00,60.4,21.8,0.00,North,0,0.0,0.0,22,0.00,,SKC,42.27,VWS V14.01,2015-04-26 18:25:00,
2015-04-26 14:30:00,60.4,21.8,0.00,North,0,0.0,0.0,22,0.00,,SKC,42.27,VWS V14.01,2015-04-26 18:30:00,
2015-04-26 14:35:00,60.4,21.8,0.00,North,0,0.0,0.0,22,0.00,,SKC,42.27,VWS V14.01,2015-04-26 18:35:00,
2015-04-26 14:40:00,60.4,21.8,0.00,North,0,0.0,0.0,22,0.00,,SKC,42.27,VWS V14.01,2015-04-26 18:40:00,
2015-04-26 14:45:00,60.6,21.9,0.00,North,0,0.0,0.0,22,0.00,,SKC,42.27,VWS V14.01,2015-04-26 18:45:00,
2015-04-26 14:50:00,60.8,20.0,0.00,North,0,0.0,0.0,20,0.00,,SKC,42.27,VWS V14.01,2015-04-26 18:50:00,
2015-04-26 14:55:00,60.8,20.0,0.00,North,0,0.0,0.0,20,0.00,,SKC,42.27,VWS V14.01,2015-04-26 18:55:00,
2015-04-26 15:00:00,61.2,20.3,0.00,North,0,0.0,0.0,20,0.00,,SKC,42.27,VWS V14.01,2015-04-26 19:00:00,
2015-04-26 15:05:00,61.7,20.8,0.00,North,0,0.0,0.0,20,0.00,,SKC,42.27,VWS V14.01,2015-04-26 19:05:00,
2015-04-26 15:10:00,61.2,20.3,0.00,North,0,0.0,0.0,20,0.00,,SKC,42.27,VWS V14.01,2015-04-26 19:10:00,
2015-04-26 15:14:00,60.8,20.0,0.00,North,0,0.0,0.0,20,0.00,,SKC,42.27,VWS V14.01,2015-04-26 19:14:00,
2015-04-26 15:19:00,60.8,20.0,0.00,North,0,0.0,0.0,20,0.00,,SKC,42.27,VWS V14.01,2015-04-26 19:19:00,
2015-04-26 15:24:00,61.2,20.3,0.00,North,0,0.0,0.0,20,0.00,,SKC,42.27,VWS V14.01,2015-04-26 19:24:00,
2015-04-26 15:29:00,60.8,20.0,0.00,North,0,0.0,0.0,20,0.00,,SKC,42.27,VWS V14.01,2015-04-26 19:29:00,
2015-04-26 15:34:00,60.6,21.9,0.00,North,0,0.0,0.0,22,0.00,,SKC,42.27,VWS V14.01,2015-04-26 19:34:00,
2015-04-26 15:39:00,60.4,21.8,0.00,North,0,0.0,0.0,22,0.00,,SKC,42.27,VWS V14.01,2015-04-26 19:39:00,
2015-04-26 15:44:00,60.1,21.5,0.00,North,0,0.0,0.0,22,0.00,,SKC,42.27,VWS V14.01,2015-04-26 19:44:00,
2015-04-26 15:49:00,60.3,21.6,0.00,North,0,0.0,0.0,22,0.00,,SKC,42.27,VWS V14.01,2015-04-26 19:49:00,
2015-04-26 15:54:00,60.4,21.8,0.00,North,0,0.0,0.0,22,0.00,,SKC,42.27,VWS V14.01,2015-04-26 19:54:00,
2015-04-26 15:59:00,60.4,21.8,0.00,North,0,0.0,0.0,22,0.00,,SKC,42.27,VWS V14.01,2015-04-26 19:59:00,
2015-04-26 16:04:00,60.1,21.5,0.00,North,0,0.0,0.0,22,0.00,,SKC,42.27,VWS V14.01,2015-04-26 20:04:00,
2015-04-26 16:09:00,59.9,21.3,0.00,North,0,0.0,0.0,22,0.00,,SKC,42.27,VWS V14.01,2015-04-26 20:09:00,
2015-04-26 16:14:00,59.7,21.2,0.00,North,0,0.0,0.0,22,0.00,,SKC,42.27,VWS V14.01,2015-04-26 20:14:00,
2015-04-26 16:19:00,59.9,21.3,0.00,North,0,0.0,0.0,22,0.00,,SKC,42.27,VWS V14.01,2015-04-26 20:19:00,
2015-04-26 16:24:00,60.4,21.8,0.00,North,0,0.0,0.0,22,0.00,,SKC,42.27,VWS V14.01,2015-04-26 20:24:00,
2015-04-26 16:29:00,60.1,21.5,0.00,North,0,0.0,0.0,22,0.00,,SKC,42.27,VWS V14.01,2015-04-26 20:29:00,
2015-04-26 16:34:00,59.2,20.7,0.00,North,0,0.0,0.0,22,0.00,,SKC,42.27,VWS V14.01,2015-04-26 20:34:00,
2015-04-26 16:39:00,58.6,20.3,0.00,North,0,0.0,0.0,22,0.00,,SKC,42.27,VWS V14.01,2015-04-26 20:39:00,
2015-04-26 16:44:00,58.5,20.1,0.00,North,0,0.0,0.0,22,0.00,,SKC,42.27,VWS V14.01,2015-04-26 20:44:00,
2015-04-26 16:49:00,58.6,20.3,0.00,North,0,0.0,0.0,22,0.00,,SKC,42.27,VWS V14.01,2015-04-26 20:49:00,
2015-04-26 16:54:00,58.5,20.1,0.00,North,0,0.0,0.0,22,0.00,,SKC,42.27,VWS V14.01,2015-04-26 20:54:00,
2015-04-26 16:59:00,58.6,20.3,0.00,North,0,0.0,0.0,22,0.00,,SKC,42.27,VWS V14.01,2015-04-26 20:59:00,
2015-04-26 17:04:00,58.8,20.4,0.00,North,0,0.0,0.0,22,0.00,,SKC,42.27,VWS V14.01,2015-04-26 21:04:00,
2015-04-26 17:09:00,58.8,20.4,0.00,North,0,0.0,0.0,22,0.00,,SKC,42.27,VWS V14.01,2015-04-26 21:09:00,
2015-04-26 17:14:00,59.2,20.7,0.00,North,0,0.0,0.0,22,0.00,,SKC,42.27,VWS V14.01,2015-04-26 21:14:00,
2015-04-26 17:19:00,59.0,20.6,0.00,North,0,0.0,0.0,22,0.00,,SKC,42.27,VWS V14.01,2015-04-26 21:19:00,
2015-04-26 17:29:00,58.3,20.0,0.00,North,0,0.0,0.0,22,0.00,,SKC,42.27,VWS V14.01,2015-04-26 21:29:00,
2015-04-26 17:34:00,57.9,19.7,0.00,North,0,0.0,0.0,22,0.00,,SKC,42.27,VWS V14.01,2015-04-26 21:34:00,
2015-04-26 17:39:00,57.4,19.2,0.00,North,0,0.0,0.0,22,0.00,,SKC,42.27,VWS V14.01,2015-04-26 21:39:00,
2015-04-26 17:44:00,57.2,19.1,0.00,North,0,0.0,0.0,22,0.00,,SKC,0.00,VWS V14.01,2015-04-26 21:44:00,
2015-04-26 17:49:00,57.0,18.9,0.00,North,0,0.0,0.0,22,0.00,,SKC,42.27,VWS V14.01,2015-04-26 21:49:00,
2015-04-26 17:54:00,57.2,19.1,0.00,North,0,0.0,0.0,22,0.00,,SKC,42.27,VWS V14.01,2015-04-26 21:54:00,
2015-04-26 17:59:00,57.6,19.4,0.00,North,0,0.0,0.0,22,0.00,,SKC,42.27,VWS V14.01,2015-04-26 21:59:00,
2015-04-26 18:04:00,57.6,19.4,0.00,North,0,0.0,0.0,22,0.00,,SKC,42.27,VWS V14.01,2015-04-26 22:04:00,
2015-04-26 18:09:00,57.4,19.2,0.00,North,0,0.0,0.0,22,0.00,,SKC,42.27,VWS V14.01,2015-04-26 22:09:00,
2015-04-26 18:14:00,57.2,19.1,0.00,North,0,0.0,0.0,22,0.00,,SKC,42.27,VWS V14.01,2015-04-26 22:14:00,
2015-04-26 18:19:00,56.7,18.6,0.00,North,0,0.0,0.0,22,0.00,,SKC,42.27,VWS V14.01,2015-04-26 22:19:00,
2015-04-26 18:24:00,56.3,18.3,0.00,North,0,0.0,0.0,22,0.00,,SKC,42.27,VWS V14.01,2015-04-26 22:24:00,
2015-04-26 18:29:00,55.9,18.0,0.00,North,0,0.0,0.0,22,0.00,,SKC,42.27,VWS V14.01,2015-04-26 22:29:00,
2015-04-26 18:34:00,55.8,17.9,0.00,North,0,0.0,0.0,22,0.00,,SKC,42.27,VWS V14.01,2015-04-26 22:34:00,
2015-04-26 18:39:00,55.6,17.7,0.00,North,0,0.0,0.0,22,0.00,,SKC,42.27,VWS V14.01,2015-04-26 22:39:00,
2015-04-26 18:44:00,55.4,17.5,0.00,North,0,0.0,0.0,22,0.00,,SKC,42.27,VWS V14.01,2015-04-26 22:44:00,
2015-04-26 18:49:00,55.2,19.2,0.00,North,0,0.0,0.0,24,0.00,,SKC,42.27,VWS V14.01,2015-04-26 22:49:00,
2015-04-26 18:54:00,55.0,19.1,0.00,North,0,0.0,0.0,24,0.00,,SKC,42.27,VWS V14.01,2015-04-26 22:54:00,
2015-04-26 18:59:00,54.9,19.0,0.00,North,0,0.0,0.0,24,0.00,,SKC,42.27,VWS V14.01,2015-04-26 22:59:00,
2015-04-26 19:04:00,54.7,18.8,0.00,North,0,0.0,0.0,24,0.00,,SKC,42.27,VWS V14.01,2015-04-26 23:04:00,
2015-04-26 19:09:00,54.5,18.6,0.00,North,0,0.0,0.0,24,0.00,,SKC,42.27,VWS V14.01,2015-04-26 23:09:00,
2015-04-26 19:14:00,54.5,18.6,0.00,North,0,0.0,0.0,24,0.00,,SKC,42.27,VWS V14.01,2015-04-26 23:14:00,
2015-04-26 19:19:00,54.7,18.8,0.00,North,0,0.0,0.0,24,0.00,,SKC,42.27,VWS V14.01,2015-04-26 23:19:00,
2015-04-26 19:24:00,54.9,19.0,0.00,North,0,0.0,0.0,24,0.00,,SKC,42.27,VWS V14.01,2015-04-26 23:24:00,
2015-04-26 19:29:00,54.7,18.8,0.00,North,0,0.0,0.0,24,0.00,,SKC,42.27,VWS V14.01,2015-04-26 23:29:00,
2015-04-26 19:34:00,54.5,18.6,0.00,North,0,0.0,0.0,24,0.00,,SKC,42.27,VWS V14.01,2015-04-26 23:34:00,
2015-04-26 19:39:00,54.3,18.5,0.00,North,0,0.0,0.0,24,0.00,,SKC,42.27,VWS V14.01,2015-04-26 23:39:00,
2015-04-26 19:44:00,54.3,18.5,0.00,North,0,0.0,0.0,24,0.00,,SKC,42.27,VWS V14.01,2015-04-26 23:44:00,
2015-04-26 19:49:00,54.1,18.3,0.00,North,0,0.0,0.0,24,0.00,,SKC,42.27,VWS V14.01,2015-04-26 23:49:00,
2015-04-26 19:54:00,54.0,18.2,0.00,North,0,0.0,0.0,24,0.00,,SKC,42.27,VWS V14.01,2015-04-26 23:54:00,
2015-04-26 19:59:00,53.8,18.0,0.00,North,0,0.0,0.0,24,0.00,,SKC,42.27,VWS V14.01,2015-04-26 23:59:00,
2015-04-26 20:04:00,53.6,17.9,0.00,North,0,0.0,0.0,24,0.00,,SKC,42.27,VWS V14.01,2015-04-27 00:04:00,
2015-04-26 20:09:00,53.2,17.6,0.00,North,0,0.0,0.0,24,0.00,,SKC,42.27,VWS V14.01,2015-04-27 00:09:00,
2015-04-26 20:14:00,53.1,17.4,0.00,North,0,0.0,0.0,24,0.00,,SKC,42.27,VWS V14.01,2015-04-27 00:14:00,
2015-04-26 20:19:00,52.7,17.1,0.00,North,0,0.0,0.0,24,0.00,,SKC,42.27,VWS V14.01,2015-04-27 00:19:00,
2015-04-26 20:24:00,52.5,17.0,0.00,North,0,0.0,0.0,24,0.00,,SKC,42.27,VWS V14.01,2015-04-27 00:24:00,
2015-04-26 20:29:00,52.5,17.0,0.00,North,0,0.0,0.0,24,0.00,,SKC,42.27,VWS V14.01,2015-04-27 00:29:00,
2015-04-26 20:34:00,52.3,16.8,0.00,North,0,0.0,0.0,24,0.00,,SKC,42.27,VWS V14.01,2015-04-27 00:34:00,
2015-04-26 20:39:00,52.2,16.6,0.00,North,0,0.0,0.0,24,0.00,,SKC,42.27,VWS V14.01,2015-04-27 00:39:00,
2015-04-26 20:44:00,52.2,16.6,0.00,North,0,0.0,0.0,24,0.00,,SKC,42.27,VWS V14.01,2015-04-27 00:44:00,
2015-04-26 20:49:00,52.0,16.5,0.00,North,0,0.0,0.0,24,0.00,,SKC,42.27,VWS V14.01,2015-04-27 00:49:00,